カタログに戻る

COSMOS 1560

運用中軍事LEO
NORAD 14999·PAYLOAD·🇷🇺 Russia

打ち上げ May 28, 1984 から Plesetsk Cosmodrome

Loading…

次のパス (今後24時間)

TLE

最新Source: Space-Track

元期: Sep 14, 2026, 04:30 UTC

1 14999U 84052B   26257.18805714  .00000004  00000-0  14004-3 0  9993
2 14999  74.0162 344.4865 0014192 248.8027 133.8931 12.46119033923929

AllMySatでCOSMOS 1560をリアルタイム追跡

Download on the App Store